PRIVATE WETTERSTATION BILLIGHEIM-ALLFELD                       ZURCK
Wetterdaten: Donnerstag, 16.10.2014
Datum Zeit Temp. A. Temp. A. min Temp. A. max Feuchte A. Luftdruck Regen Wind Richtung Richtung Sonnenschein ET Solar Taupunkt Windchill Windben Empfang
16.10.2014 00:00 13,7 C 13,6 C 13,7 C 92 % 1006,7 hPa 0,2 l/m 0,0 km/h (0 Bft) SO 135 0 min 0,000 mm 0 W/m 12,4 C 13,7 C 6,4 km/h (2 Bft) 97 %
16.10.2014 00:10 13,7 C 13,7 C 13,8 C 92 % 1006,7 hPa 0,0 l/m 1,6 km/h (1 Bft) S-SO 157 0 min 0,000 mm 0 W/m 12,4 C 13,7 C 6,4 km/h (2 Bft) 98 %
16.10.2014 00:20 13,6 C 13,6 C 13,7 C 92 % 1006,8 hPa 0,0 l/m 4,8 km/h (1 Bft) S-SO 157 0 min 0,000 mm 0 W/m 12,3 C 13,6 C 11,3 km/h (2 Bft) 97 %
16.10.2014 00:30 13,5 C 13,5 C 13,7 C 92 % 1006,8 hPa 0,0 l/m 6,4 km/h (2 Bft) S-SO 157 0 min 0,000 mm 0 W/m 12,2 C 13,5 C 11,3 km/h (2 Bft) 98 %
16.10.2014 00:40 13,4 C 13,4 C 13,5 C 92 % 1006,9 hPa 0,2 l/m 4,8 km/h (1 Bft) S-SO 157 0 min 0,000 mm 0 W/m 12,1 C 13,4 C 9,7 km/h (2 Bft) 97 %
16.10.2014 00:50 13,4 C 13,4 C 13,4 C 92 % 1006,7 hPa 0,0 l/m 4,8 km/h (1 Bft) SO 135 0 min 0,000 mm 0 W/m 12,1 C 13,4 C 9,7 km/h (2 Bft) 97 %
16.10.2014 01:00 13,3 C 13,3 C 13,4 C 92 % 1006,6 hPa 0,0 l/m 3,2 km/h (1 Bft) SO 135 0 min 0,000 mm 0 W/m 12,0 C 13,3 C 9,7 km/h (2 Bft) 97 %
16.10.2014 01:10 13,2 C 13,2 C 13,3 C 92 % 1006,7 hPa 0,0 l/m 4,8 km/h (1 Bft) S-SO 157 0 min 0,000 mm 0 W/m 11,9 C 13,2 C 11,3 km/h (2 Bft) 98 %
16.10.2014 01:20 13,1 C 13,1 C 13,2 C 92 % 1006,8 hPa 0,0 l/m 4,8 km/h (1 Bft) S-SO 157 0 min 0,000 mm 0 W/m 11,8 C 13,1 C 11,3 km/h (2 Bft) 98 %
16.10.2014 01:30 13,1 C 13,1 C 13,1 C 92 % 1006,8 hPa 0,2 l/m 4,8 km/h (1 Bft) S-SO 157 0 min 0,000 mm 0 W/m 11,8 C 13,1 C 9,7 km/h (2 Bft) 97 %
16.10.2014 01:40 13,0 C 13,0 C 13,1 C 92 % 1006,8 hPa 0,0 l/m 6,4 km/h (2 Bft) S-SO 157 0 min 0,000 mm 0 W/m 11,7 C 13,0 C 14,5 km/h (3 Bft) 97 %
16.10.2014 01:50 13,1 C 13,0 C 13,1 C 92 % 1006,7 hPa 0,2 l/m 6,4 km/h (2 Bft) S-SO 157 0 min 0,000 mm 0 W/m 11,8 C 13,1 C 11,3 km/h (2 Bft) 97 %
16.10.2014 02:00 13,1 C 13,0 C 13,1 C 92 % 1006,8 hPa 0,0 l/m 6,4 km/h (2 Bft) S-SO 157 0 min 0,000 mm 0 W/m 11,8 C 13,1 C 16,1 km/h (3 Bft) 98 %
16.10.2014 02:10 13,1 C 13,1 C 13,1 C 92 % 1006,6 hPa 0,0 l/m 3,2 km/h (1 Bft) S-SO 157 0 min 0,000 mm 0 W/m 11,8 C 13,1 C 9,7 km/h (2 Bft) 98 %
16.10.2014 02:20 13,0 C 13,0 C 13,1 C 92 % 1006,6 hPa 0,0 l/m 3,2 km/h (1 Bft) S 180 0 min 0,000 mm 0 W/m 11,7 C 13,0 C 8,0 km/h (2 Bft) 97 %
16.10.2014 02:30 13,0 C 13,0 C 13,0 C 92 % 1006,7 hPa 0,0 l/m 1,6 km/h (1 Bft) S 180 0 min 0,000 mm 0 W/m 11,7 C 13,0 C 6,4 km/h (2 Bft) 98 %
16.10.2014 02:40 13,0 C 13,0 C 13,0 C 92 % 1006,7 hPa 0,0 l/m 1,6 km/h (1 Bft) S 180 0 min 0,000 mm 0 W/m 11,7 C 13,0 C 8,0 km/h (2 Bft) 96 %
16.10.2014 02:50 13,0 C 13,0 C 13,0 C 92 % 1006,7 hPa 0,0 l/m 1,6 km/h (1 Bft) S 180 0 min 0,000 mm 0 W/m 11,7 C 13,0 C 8,0 km/h (2 Bft) 98 %
16.10.2014 03:00 13,0 C 13,0 C 13,0 C 92 % 1006,7 hPa 0,0 l/m 3,2 km/h (1 Bft) S-SO 157 0 min 0,000 mm 0 W/m 11,7 C 13,0 C 8,0 km/h (2 Bft) 98 %
16.10.2014 03:10 12,9 C 12,9 C 13,0 C 92 % 1006,6 hPa 0,0 l/m 1,6 km/h (1 Bft) S 180 0 min 0,000 mm 0 W/m 11,6 C 12,9 C 6,4 km/h (2 Bft) 88 %
16.10.2014 03:20 12,9 C 12,9 C 12,9 C 92 % 1006,6 hPa 0,0 l/m 1,6 km/h (1 Bft) S 180 0 min 0,000 mm 0 W/m 11,6 C 12,9 C 6,4 km/h (2 Bft) 97 %
16.10.2014 03:30 12,9 C 12,9 C 12,9 C 92 % 1006,6 hPa 0,0 l/m 1,6 km/h (1 Bft) S-SO 157 0 min 0,000 mm 0 W/m 11,6 C 12,9 C 6,4 km/h (2 Bft) 98 %
16.10.2014 03:40 12,9 C 12,9 C 12,9 C 92 % 1006,7 hPa 0,0 l/m 3,2 km/h (1 Bft) S-SO 157 0 min 0,000 mm 0 W/m 11,6 C 12,9 C 8,0 km/h (2 Bft) 98 %
16.10.2014 03:50 12,8 C 12,8 C 12,9 C 92 % 1006,8 hPa 0,0 l/m 1,6 km/h (1 Bft) S 180 0 min 0,000 mm 0 W/m 11,5 C 12,8 C 6,4 km/h (2 Bft) 97 %
16.10.2014 04:00 12,8 C 12,8 C 12,8 C 92 % 1006,7 hPa 0,0 l/m 1,6 km/h (1 Bft) S-SO 157 0 min 0,000 mm 0 W/m 11,5 C 12,8 C 6,4 km/h (2 Bft) 97 %
16.10.2014 04:10 12,8 C 12,8 C 12,8 C 92 % 1006,7 hPa 0,0 l/m 0,0 km/h (0 Bft) S-SO 157 0 min 0,000 mm 0 W/m 11,5 C 12,8 C 6,4 km/h (2 Bft) 97 %
16.10.2014 04:20 12,7 C 12,7 C 12,8 C 92 % 1006,6 hPa 0,0 l/m 0,0 km/h (0 Bft) S-SO 157 0 min 0,000 mm 0 W/m 11,4 C 12,7 C 1,6 km/h (1 Bft) 98 %
16.10.2014 04:30 12,7 C 12,7 C 12,7 C 92 % 1006,5 hPa 0,0 l/m 0,0 km/h (0 Bft) S-SO 157 0 min 0,000 mm 0 W/m 11,4 C 12,7 C 1,6 km/h (1 Bft) 97 %
16.10.2014 04:40 12,7 C 12,7 C 12,7 C 92 % 1006,6 hPa 0,0 l/m 0,0 km/h (0 Bft) S-SO 157 0 min 0,000 mm 0 W/m 11,4 C 12,7 C 4,8 km/h (1 Bft) 98 %
16.10.2014 04:50 12,7 C 12,7 C 12,7 C 92 % 1006,6 hPa 0,0 l/m 0,0 km/h (0 Bft) S-SO 157 0 min 0,000 mm 0 W/m 11,4 C 12,7 C 1,6 km/h (1 Bft) 98 %
16.10.2014 05:00 12,7 C 12,7 C 12,7 C 92 % 1006,7 hPa 0,0 l/m 0,0 km/h (0 Bft) S-SO 157 0 min 0,000 mm 0 W/m 11,4 C 12,7 C 3,2 km/h (1 Bft) 96 %
16.10.2014 05:10 12,7 C 12,7 C 12,7 C 92 % 1006,7 hPa 0,0 l/m 1,6 km/h (1 Bft) S-SO 157 0 min 0,000 mm 0 W/m 11,4 C 12,7 C 4,8 km/h (1 Bft) 98 %
16.10.2014 05:20 12,6 C 12,6 C 12,7 C 92 % 1006,7 hPa 0,0 l/m 0,0 km/h (0 Bft) N 0 0 min 0,000 mm 0 W/m 11,3 C 12,6 C 0,0 km/h (0 Bft) 98 %
16.10.2014 05:30 12,7 C 12,6 C 12,7 C 92 % 1006,8 hPa 0,0 l/m 0,0 km/h (0 Bft) N 0 0 min 0,000 mm 0 W/m 11,4 C 12,7 C 0,0 km/h (0 Bft) 98 %
16.10.2014 05:40 12,7 C 12,6 C 12,7 C 92 % 1006,8 hPa 0,0 l/m 0,0 km/h (0 Bft) S-SO 157 0 min 0,000 mm 0 W/m 11,4 C 12,7 C 1,6 km/h (1 Bft) 97 %
16.10.2014 05:50 12,7 C 12,6 C 12,7 C 92 % 1006,8 hPa 0,0 l/m 0,0 km/h (0 Bft) S-SO 157 0 min 0,000 mm 0 W/m 11,4 C 12,7 C 4,8 km/h (1 Bft) 97 %
16.10.2014 06:00 12,6 C 12,6 C 12,7 C 92 % 1006,7 hPa 0,0 l/m 0,0 km/h (0 Bft) S-SO 157 0 min 0,000 mm 0 W/m 11,3 C 12,6 C 1,6 km/h (1 Bft) 98 %
16.10.2014 06:10 12,6 C 12,6 C 12,6 C 92 % 1006,8 hPa 0,0 l/m 0,0 km/h (0 Bft) S-SO 157 0 min 0,000 mm 0 W/m 11,3 C 12,6 C 1,6 km/h (1 Bft) 97 %
16.10.2014 06:20 12,6 C 12,6 C 12,6 C 92 % 1006,8 hPa 0,0 l/m 0,0 km/h (0 Bft) S-SO 157 0 min 0,000 mm 0 W/m 11,3 C 12,6 C 4,8 km/h (1 Bft) 97 %
16.10.2014 06:30 12,6 C 12,6 C 12,6 C 92 % 1006,8 hPa 0,0 l/m 1,6 km/h (1 Bft) S-SO 157 0 min 0,000 mm 0 W/m 11,3 C 12,6 C 4,8 km/h (1 Bft) 98 %
16.10.2014 06:40 12,6 C 12,6 C 12,6 C 92 % 1007,0 hPa 0,0 l/m 1,6 km/h (1 Bft) S-SO 157 0 min 0,000 mm 0 W/m 11,3 C 12,6 C 4,8 km/h (1 Bft) 98 %
16.10.2014 06:50 12,6 C 12,6 C 12,6 C 92 % 1006,9 hPa 0,0 l/m 0,0 km/h (0 Bft) S-SO 157 0 min 0,000 mm 0 W/m 11,3 C 12,6 C 6,4 km/h (2 Bft) 97 %
16.10.2014 07:00 12,6 C 12,6 C 12,6 C 92 % 1007,0 hPa 0,0 l/m 1,6 km/h (1 Bft) S-SO 157 0 min 0,000 mm 0 W/m 11,3 C 12,6 C 6,4 km/h (2 Bft) 97 %
16.10.2014 07:10 12,6 C 12,6 C 12,6 C 92 % 1007,0 hPa 0,0 l/m 1,6 km/h (1 Bft) S-SO 157 0 min 0,000 mm 0 W/m 11,3 C 12,6 C 6,4 km/h (2 Bft) 87 %
16.10.2014 07:20 12,6 C 12,6 C 12,6 C 92 % 1006,9 hPa 0,0 l/m 3,2 km/h (1 Bft) S-SO 157 0 min 0,000 mm 0 W/m 11,3 C 12,6 C 6,4 km/h (2 Bft) 98 %
16.10.2014 07:30 12,6 C 12,6 C 12,6 C 92 % 1006,9 hPa 0,0 l/m 3,2 km/h (1 Bft) S-SO 157 0 min 0,000 mm 0 W/m 11,3 C 12,6 C 6,4 km/h (2 Bft) 98 %
16.10.2014 07:40 12,6 C 12,6 C 12,6 C 93 % 1006,9 hPa 0,0 l/m 3,2 km/h (1 Bft) S-SO 157 0 min 0,000 mm 0 W/m 11,5 C 12,6 C 8,0 km/h (2 Bft) 97 %
16.10.2014 07:50 12,7 C 12,6 C 12,7 C 93 % 1006,9 hPa 0,0 l/m 1,6 km/h (1 Bft) S-SO 157 0 min 0,000 mm 0 W/m 11,6 C 12,7 C 8,0 km/h (2 Bft) 98 %
16.10.2014 08:00 12,7 C 12,7 C 12,7 C 93 % 1006,9 hPa 0,0 l/m 1,6 km/h (1 Bft) S-SO 157 0 min 0,000 mm 5 W/m 11,6 C 12,7 C 6,4 km/h (2 Bft) 98 %
16.10.2014 08:10 12,7 C 12,7 C 12,7 C 93 % 1007,2 hPa 0,0 l/m 1,6 km/h (1 Bft) S-SW 202 0 min 0,000 mm 12 W/m 11,6 C 12,7 C 6,4 km/h (2 Bft) 97 %
16.10.2014 08:20 12,6 C 12,6 C 12,7 C 93 % 1006,9 hPa 0,0 l/m 1,6 km/h (1 Bft) S-SO 157 0 min 0,000 mm 28 W/m 11,5 C 12,6 C 6,4 km/h (2 Bft) 97 %
16.10.2014 08:30 12,6 C 12,6 C 12,6 C 93 % 1007,1 hPa 0,0 l/m 1,6 km/h (1 Bft) S-SO 157 0 min 0,000 mm 49 W/m 11,5 C 12,6 C 8,0 km/h (2 Bft) 98 %
16.10.2014 08:40 12,8 C 12,6 C 12,8 C 92 % 1007,1 hPa 0,0 l/m 4,8 km/h (1 Bft) S-SO 157 0 min 0,000 mm 58 W/m 11,5 C 12,8 C 14,5 km/h (3 Bft) 97 %
16.10.2014 08:50 13,0 C 12,8 C 13,0 C 93 % 1007,0 hPa 0,0 l/m 4,8 km/h (1 Bft) S-SO 157 0 min 0,000 mm 49 W/m 11,9 C 13,0 C 12,9 km/h (3 Bft) 98 %
16.10.2014 09:00 13,1 C 13,0 C 13,1 C 93 % 1007,0 hPa 0,0 l/m 6,4 km/h (2 Bft) S-SO 157 0 min 0,025 mm 65 W/m 12,0 C 13,1 C 11,3 km/h (2 Bft) 97 %
16.10.2014 09:10 13,3 C 13,0 C 13,3 C 93 % 1007,1 hPa 0,0 l/m 4,4 km/h (1 Bft) S 184 0 min 0,000 mm 51 W/m 12,2 C 13,3 C 11,3 km/h (2 Bft) 100 %
16.10.2014 09:20 13,3 C 13,3 C 13,3 C 93 % 1007,1 hPa 0,0 l/m 3,4 km/h (1 Bft) S-SO 166 0 min 0,000 mm 56 W/m 12,2 C 13,3 C 8,0 km/h (2 Bft) 100 %
16.10.2014 09:30 13,4 C 13,3 C 13,4 C 93 % 1007,2 hPa 0,0 l/m 4,0 km/h (1 Bft) S-SO 148 0 min 0,000 mm 74 W/m 12,3 C 13,4 C 8,0 km/h (2 Bft) 100 %
16.10.2014 09:40 13,5 C 13,4 C 13,5 C 93 % 1007,3 hPa 0,0 l/m 5,1 km/h (1 Bft) S-SO 162 0 min 0,000 mm 32 W/m 12,4 C 13,5 C 11,3 km/h (2 Bft) 100 %
16.10.2014 09:50 13,6 C 13,4 C 13,6 C 93 % 1007,3 hPa 0,0 l/m 5,9 km/h (2 Bft) SO 140 0 min 0,000 mm 81 W/m 12,5 C 13,6 C 19,3 km/h (3 Bft) 100 %
16.10.2014 10:00 14,1 C 13,6 C 14,1 C 92 % 1007,1 hPa 0,0 l/m 8,4 km/h (2 Bft) S-SO 157 10 min 0,051 mm 287 W/m 12,8 C 12,9 C 16,1 km/h (3 Bft) 99 %
16.10.2014 10:10 14,7 C 14,1 C 14,7 C 93 % 1007,4 hPa 0,0 l/m 8,2 km/h (2 Bft) SO 143 0 min 0,000 mm 123 W/m 13,6 C 13,7 C 17,7 km/h (3 Bft) 100 %
16.10.2014 10:20 14,9 C 14,6 C 14,9 C 93 % 1007,2 hPa 0,0 l/m 4,8 km/h (1 Bft) S 174 10 min 0,000 mm 432 W/m 13,8 C 14,9 C 16,1 km/h (3 Bft) 100 %
16.10.2014 10:30 15,1 C 14,9 C 15,1 C 93 % 1007,2 hPa 0,0 l/m 2,4 km/h (1 Bft) S 186 0 min 0,000 mm 128 W/m 14,0 C 15,1 C 11,3 km/h (2 Bft) 100 %
16.10.2014 10:40 15,1 C 15,1 C 15,1 C 93 % 1007,3 hPa 0,0 l/m 7,0 km/h (2 Bft) S 171 0 min 0,000 mm 127 W/m 14,0 C 14,8 C 16,1 km/h (3 Bft) 100 %
16.10.2014 10:50 15,1 C 15,1 C 15,1 C 93 % 1007,3 hPa 0,0 l/m 2,6 km/h (1 Bft) S-SW 207 0 min 0,000 mm 47 W/m 14,0 C 15,1 C 9,7 km/h (2 Bft) 100 %
16.10.2014 11:00 15,1 C 15,1 C 15,1 C 93 % 1007,2 hPa 0,0 l/m 3,3 km/h (1 Bft) S 186 0 min 0,000 mm 137 W/m 14,0 C 15,1 C 8,0 km/h (2 Bft) 100 %
16.10.2014 11:10 15,1 C 15,1 C 15,1 C 93 % 1007,2 hPa 0,0 l/m 0,0 km/h (0 Bft) S 188 10 min 0,102 mm 163 W/m 14,0 C 15,1 C 1,6 km/h (1 Bft) 100 %
16.10.2014 11:20 15,2 C 15,1 C 15,2 C 93 % 1007,2 hPa 0,0 l/m 0,8 km/h (0 Bft) S-SO 154 0 min 0,000 mm 120 W/m 14,1 C 15,2 C 6,4 km/h (2 Bft) 100 %
16.10.2014 11:30 15,3 C 15,2 C 15,3 C 93 % 1007,2 hPa 0,0 l/m 3,9 km/h (1 Bft) S 176 0 min 0,000 mm 77 W/m 14,2 C 15,3 C 9,7 km/h (2 Bft) 100 %
16.10.2014 11:40 15,3 C 15,3 C 15,3 C 93 % 1007,0 hPa 0,0 l/m 5,4 km/h (1 Bft) S-SO 155 10 min 0,000 mm 188 W/m 14,2 C 15,3 C 9,7 km/h (2 Bft) 100 %
16.10.2014 11:50 15,5 C 15,3 C 15,5 C 93 % 1007,2 hPa 0,0 l/m 3,7 km/h (1 Bft) SO 146 0 min 0,000 mm 90 W/m 14,4 C 15,5 C 9,7 km/h (2 Bft) 100 %
16.10.2014 12:00 15,7 C 15,5 C 15,7 C 93 % 1007,1 hPa 0,0 l/m 4,3 km/h (1 Bft) S-SW 193 10 min 0,076 mm 165 W/m 14,6 C 15,7 C 9,7 km/h (2 Bft) 100 %
16.10.2014 12:10 16,1 C 15,7 C 16,1 C 93 % 1007,1 hPa 0,0 l/m 3,1 km/h (1 Bft) S-SW 196 0 min 0,000 mm 137 W/m 15,0 C 16,1 C 14,5 km/h (3 Bft) 100 %
16.10.2014 12:20 16,2 C 16,1 C 16,2 C 93 % 1007,0 hPa 0,0 l/m 4,5 km/h (1 Bft) S-SW 211 10 min 0,000 mm 165 W/m 15,1 C 16,2 C 11,3 km/h (2 Bft) 100 %
16.10.2014 12:30 16,3 C 16,2 C 16,3 C 92 % 1007,1 hPa 0,0 l/m 6,7 km/h (2 Bft) S-SW 201 10 min 0,000 mm 183 W/m 15,0 C 16,2 C 14,5 km/h (3 Bft) 100 %
16.10.2014 12:40 16,3 C 16,2 C 16,3 C 91 % 1007,1 hPa 0,0 l/m 3,2 km/h (1 Bft) S-SW 212 0 min 0,000 mm 90 W/m 14,8 C 16,3 C 14,5 km/h (3 Bft) 100 %
16.10.2014 12:50 16,3 C 16,3 C 16,3 C 91 % 1007,0 hPa 0,0 l/m 1,9 km/h (1 Bft) S-SO 165 0 min 0,000 mm 109 W/m 14,8 C 16,3 C 9,7 km/h (2 Bft) 100 %
16.10.2014 13:00 16,3 C 16,2 C 16,3 C 92 % 1007,1 hPa 0,0 l/m 7,0 km/h (2 Bft) S 180 10 min 0,076 mm 179 W/m 15,0 C 16,0 C 16,1 km/h (3 Bft) 99 %
16.10.2014 13:10 16,4 C 16,3 C 16,4 C 92 % 1007,3 hPa 0,0 l/m 7,3 km/h (2 Bft) S 185 0 min 0,000 mm 49 W/m 15,1 C 15,9 C 17,7 km/h (3 Bft) 100 %
16.10.2014 13:20 16,3 C 16,3 C 16,4 C 91 % 1007,4 hPa 0,0 l/m 10,7 km/h (2 Bft) W-SW 257 0 min 0,000 mm 116 W/m 14,8 C 14,3 C 25,7 km/h (4 Bft) 100 %
16.10.2014 13:30 16,4 C 16,3 C 16,4 C 91 % 1007,3 hPa 0,0 l/m 11,7 km/h (2 Bft) SW 222 0 min 0,000 mm 130 W/m 14,9 C 14,0 C 27,4 km/h (4 Bft) 100 %
16.10.2014 13:40 16,4 C 16,4 C 16,4 C 91 % 1007,2 hPa 0,0 l/m 13,4 km/h (3 Bft) S-SW 212 10 min 0,000 mm 153 W/m 14,9 C 13,4 C 29,0 km/h (5 Bft) 99 %
16.10.2014 13:50 16,5 C 16,4 C 16,5 C 91 % 1007,2 hPa 0,0 l/m 11,7 km/h (2 Bft) S-SW 209 0 min 0,000 mm 116 W/m 15,0 C 14,1 C 22,5 km/h (4 Bft) 100 %
16.10.2014 14:00 16,5 C 16,5 C 16,5 C 91 % 1007,2 hPa 0,0 l/m 10,1 km/h (2 Bft) S-SW 196 0 min 0,000 mm 142 W/m 15,0 C 14,7 C 24,1 km/h (4 Bft) 99 %
16.10.2014 14:10 16,4 C 16,4 C 16,5 C 90 % 1007,1 hPa 0,0 l/m 13,8 km/h (3 Bft) S-SW 195 0 min 0,076 mm 105 W/m 14,8 C 13,3 C 29,0 km/h (5 Bft) 100 %
16.10.2014 14:20 16,4 C 16,4 C 16,4 C 91 % 1007,2 hPa 0,0 l/m 9,6 km/h (2 Bft) SW 221 10 min 0,000 mm 176 W/m 14,9 C 14,8 C 22,5 km/h (4 Bft) 100 %
16.10.2014 14:30 16,3 C 16,3 C 16,4 C 91 % 1007,2 hPa 0,0 l/m 13,4 km/h (3 Bft) SW 217 0 min 0,000 mm 118 W/m 14,8 C 13,3 C 25,7 km/h (4 Bft) 100 %
16.10.2014 14:40 16,2 C 16,2 C 16,3 C 90 % 1007,0 hPa 0,0 l/m 12,2 km/h (2 Bft) SW 220 0 min 0,000 mm 139 W/m 14,6 C 13,6 C 30,6 km/h (5 Bft) 100 %
16.10.2014 14:50 16,1 C 16,1 C 16,2 C 91 % 1007,1 hPa 0,0 l/m 9,4 km/h (2 Bft) SW 236 0 min 0,000 mm 120 W/m 14,6 C 14,6 C 25,7 km/h (4 Bft) 100 %
16.10.2014 15:00 16,1 C 16,1 C 16,1 C 91 % 1007,1 hPa 0,0 l/m 7,9 km/h (2 Bft) S-SW 213 0 min 0,077 mm 109 W/m 14,6 C 15,3 C 25,7 km/h (4 Bft) 100 %
16.10.2014 15:10 16,0 C 16,0 C 16,1 C 91 % 1007,4 hPa 0,0 l/m 10,5 km/h (2 Bft) S 188 0 min 0,000 mm 116 W/m 14,5 C 14,0 C 22,5 km/h (4 Bft) 99 %
16.10.2014 15:20 15,9 C 15,9 C 16,0 C 91 % 1007,5 hPa 0,0 l/m 11,0 km/h (2 Bft) W-SW 258 0 min 0,000 mm 90 W/m 14,4 C 13,7 C 25,7 km/h (4 Bft) 100 %
16.10.2014 15:30 15,8 C 15,8 C 15,9 C 91 % 1007,3 hPa 0,0 l/m 11,7 km/h (2 Bft) SW 232 0 min 0,000 mm 74 W/m 14,3 C 13,3 C 25,7 km/h (4 Bft) 100 %
16.10.2014 15:40 15,8 C 15,8 C 15,8 C 92 % 1007,7 hPa 0,0 l/m 10,8 km/h (2 Bft) S-SW 193 0 min 0,000 mm 58 W/m 14,5 C 13,7 C 24,1 km/h (4 Bft) 100 %
16.10.2014 15:50 15,7 C 15,7 C 15,8 C 91 % 1007,7 hPa 0,0 l/m 10,2 km/h (2 Bft) S-SW 196 0 min 0,000 mm 56 W/m 14,2 C 13,8 C 25,7 km/h (4 Bft) 100 %
16.10.2014 16:00 15,6 C 15,6 C 15,7 C 91 % 1007,8 hPa 0,0 l/m 10,7 km/h (2 Bft) W-SW 238 0 min 0,050 mm 46 W/m 14,1 C 13,5 C 25,7 km/h (4 Bft) 100 %
16.10.2014 16:10 15,6 C 15,6 C 15,7 C 91 % 1007,8 hPa 0,0 l/m 7,0 km/h (2 Bft) S-SW 195 0 min 0,000 mm 120 W/m 14,1 C 15,3 C 17,7 km/h (3 Bft) 99 %
16.10.2014 16:20 15,7 C 15,6 C 15,7 C 91 % 1007,8 hPa 0,0 l/m 7,9 km/h (2 Bft) S-SW 198 0 min 0,000 mm 113 W/m 14,2 C 14,9 C 17,7 km/h (3 Bft) 99 %
16.10.2014 16:30 15,7 C 15,7 C 15,8 C 91 % 1008,0 hPa 0,0 l/m 8,0 km/h (2 Bft) S-SW 213 0 min 0,000 mm 95 W/m 14,2 C 14,8 C 20,9 km/h (4 Bft) 99 %
16.10.2014 16:40 15,7 C 15,7 C 15,8 C 91 % 1007,9 hPa 0,0 l/m 7,4 km/h (2 Bft) S 184 0 min 0,000 mm 102 W/m 14,2 C 15,2 C 16,1 km/h (3 Bft) 100 %
16.10.2014 16:50 15,7 C 15,7 C 15,7 C 90 % 1008,0 hPa 0,0 l/m 7,1 km/h (2 Bft) S-SW 213 0 min 0,000 mm 44 W/m 14,1 C 15,3 C 17,7 km/h (3 Bft) 100 %
16.10.2014 17:00 15,6 C 15,6 C 15,7 C 91 % 1008,1 hPa 0,0 l/m 6,6 km/h (2 Bft) S-SW 205 0 min 0,051 mm 51 W/m 14,1 C 15,5 C 20,9 km/h (4 Bft) 100 %
16.10.2014 17:10 15,5 C 15,5 C 15,6 C 91 % 1008,2 hPa 0,0 l/m 9,2 km/h (2 Bft) S 188 0 min 0,000 mm 21 W/m 14,0 C 14,0 C 17,7 km/h (3 Bft) 100 %
16.10.2014 17:20 15,3 C 15,3 C 15,5 C 91 % 1008,3 hPa 0,0 l/m 8,6 km/h (2 Bft) S-SW 207 0 min 0,000 mm 28 W/m 13,8 C 14,1 C 17,7 km/h (3 Bft) 99 %
16.10.2014 17:30 15,3 C 15,3 C 15,4 C 91 % 1008,5 hPa 0,0 l/m 8,4 km/h (2 Bft) S-SW 209 0 min 0,000 mm 23 W/m 13,8 C 14,2 C 20,9 km/h (4 Bft) 100 %
16.10.2014 17:40 15,2 C 15,2 C 15,3 C 91 % 1008,4 hPa 0,0 l/m 11,0 km/h (2 Bft) S-SW 196 0 min 0,000 mm 21 W/m 13,7 C 12,9 C 19,3 km/h (3 Bft) 99 %
16.10.2014 17:50 15,1 C 15,1 C 15,2 C 91 % 1008,4 hPa 0,0 l/m 9,7 km/h (2 Bft) S-SW 205 0 min 0,000 mm 16 W/m 13,6 C 13,4 C 19,3 km/h (3 Bft) 99 %
16.10.2014 18:00 15,1 C 15,1 C 15,1 C 91 % 1008,5 hPa 0,0 l/m 9,3 km/h (2 Bft) S-SW 199 0 min 0,026 mm 19 W/m 13,6 C 13,6 C 19,3 km/h (3 Bft) 100 %
16.10.2014 18:10 14,9 C 14,9 C 15,1 C 91 % 1008,6 hPa 0,0 l/m 6,9 km/h (2 Bft) S 190 0 min 0,000 mm 11 W/m 13,4 C 14,6 C 16,1 km/h (3 Bft) 100 %
16.10.2014 18:20 14,7 C 14,7 C 14,9 C 92 % 1008,6 hPa 0,0 l/m 3,5 km/h (1 Bft) S-SW 202 0 min 0,000 mm 5 W/m 13,4 C 14,7 C 9,7 km/h (2 Bft) 99 %
16.10.2014 18:30 14,5 C 14,5 C 14,7 C 92 % 1008,6 hPa 0,0 l/m 2,1 km/h (1 Bft) S 185 0 min 0,000 mm 0 W/m 13,2 C 14,5 C 8,0 km/h (2 Bft) 98 %
16.10.2014 18:40 14,3 C 14,3 C 14,5 C 92 % 1008,8 hPa 0,0 l/m 1,4 km/h (1 Bft) S 181 0 min 0,000 mm 0 W/m 13,0 C 14,3 C 9,7 km/h (2 Bft) 98 %
16.10.2014 18:50 14,2 C 14,2 C 14,3 C 92 % 1008,8 hPa 0,0 l/m 0,9 km/h (0 Bft) S 188 0 min 0,000 mm 0 W/m 12,9 C 14,2 C 9,7 km/h (2 Bft) 97 %
16.10.2014 19:00 14,2 C 14,2 C 14,2 C 93 % 1008,9 hPa 0,0 l/m 1,5 km/h (1 Bft) S-SW 194 0 min 0,000 mm 0 W/m 13,1 C 14,2 C 9,7 km/h (2 Bft) 98 %
16.10.2014 19:10 14,1 C 14,1 C 14,2 C 93 % 1009,0 hPa 0,0 l/m 0,7 km/h (0 Bft) S-SW 212 0 min 0,000 mm 0 W/m 13,0 C 14,1 C 4,8 km/h (1 Bft) 97 %
16.10.2014 19:20 14,1 C 14,1 C 14,1 C 92 % 1009,1 hPa 0,0 l/m 0,6 km/h (0 Bft) S-SW 210 0 min 0,000 mm 0 W/m 12,8 C 14,1 C 4,8 km/h (1 Bft) 98 %
16.10.2014 19:30 14,0 C 14,0 C 14,1 C 93 % 1009,4 hPa 0,0 l/m 0,6 km/h (0 Bft) S-SW 209 0 min 0,000 mm 0 W/m 12,9 C 14,0 C 4,8 km/h (1 Bft) 97 %
16.10.2014 19:40 14,0 C 14,0 C 14,1 C 93 % 1009,3 hPa 0,0 l/m 0,0 km/h (0 Bft) S-SW 209 0 min 0,000 mm 0 W/m 12,9 C 14,0 C 1,6 km/h (1 Bft) 97 %
16.10.2014 19:50 13,9 C 13,9 C 14,0 C 93 % 1009,4 hPa 0,0 l/m 0,0 km/h (0 Bft) S-SW 209 0 min 0,000 mm 0 W/m 12,8 C 13,9 C 0,0 km/h (0 Bft) 97 %
16.10.2014 20:00 13,8 C 13,8 C 13,9 C 93 % 1009,4 hPa 0,0 l/m 0,0 km/h (0 Bft) S 178 0 min 0,000 mm 0 W/m 12,7 C 13,8 C 0,0 km/h (0 Bft) 97 %
16.10.2014 20:10 13,7 C 13,7 C 13,8 C 93 % 1009,4 hPa 0,0 l/m 1,2 km/h (1 Bft) S 178 0 min 0,000 mm 0 W/m 12,6 C 13,7 C 4,8 km/h (1 Bft) 98 %
16.10.2014 20:20 13,7 C 13,7 C 13,7 C 93 % 1009,5 hPa 0,0 l/m 0,3 km/h (0 Bft) S 177 0 min 0,000 mm 0 W/m 12,6 C 13,7 C 4,8 km/h (1 Bft) 97 %
16.10.2014 20:30 13,6 C 13,6 C 13,7 C 93 % 1009,4 hPa 0,0 l/m 0,0 km/h (0 Bft) S 177 0 min 0,000 mm 0 W/m 12,5 C 13,6 C 1,6 km/h (1 Bft) 97 %
16.10.2014 20:40 13,6 C 13,6 C 13,6 C 93 % 1009,6 hPa 0,0 l/m 0,2 km/h (0 Bft) S 177 0 min 0,000 mm 0 W/m 12,5 C 13,6 C 4,8 km/h (1 Bft) 97 %
16.10.2014 20:50 13,6 C 13,6 C 13,6 C 93 % 1009,5 hPa 0,0 l/m 1,6 km/h (1 Bft) S 177 0 min 0,000 mm 0 W/m 12,5 C 13,6 C 4,8 km/h (1 Bft) 98 %
16.10.2014 21:00 13,7 C 13,6 C 13,7 C 93 % 1009,5 hPa 0,0 l/m 0,0 km/h (0 Bft) S-SO 153 0 min 0,000 mm 0 W/m 12,6 C 13,7 C 1,6 km/h (1 Bft) 97 %
16.10.2014 21:10 13,7 C 13,7 C 13,7 C 93 % 1009,5 hPa 0,0 l/m 0,0 km/h (0 Bft) S-SO 157 0 min 0,000 mm 0 W/m 12,6 C 13,7 C 1,6 km/h (1 Bft) 100 %
16.10.2014 21:20 13,7 C 13,7 C 13,7 C 93 % 1009,9 hPa 0,0 l/m 0,0 km/h (0 Bft) S-SO 157 0 min 0,000 mm 0 W/m 12,6 C 13,7 C 1,6 km/h (1 Bft) 100 %
16.10.2014 21:30 13,6 C 13,6 C 13,7 C 93 % 1009,8 hPa 0,0 l/m 1,6 km/h (1 Bft) S-SO 157 0 min 0,000 mm 0 W/m 12,5 C 13,6 C 4,8 km/h (1 Bft) 100 %
16.10.2014 21:40 13,6 C 13,6 C 13,6 C 93 % 1009,9 hPa 0,0 l/m 0,0 km/h (0 Bft) S-SO 157 0 min 0,000 mm 0 W/m 12,5 C 13,6 C 4,8 km/h (1 Bft) 100 %
16.10.2014 21:50 13,4 C 13,4 C 13,6 C 93 % 1010,0 hPa 0,0 l/m 0,0 km/h (0 Bft) N 0 0 min 0,000 mm 0 W/m 12,3 C 13,4 C 0,0 km/h (0 Bft) 99 %
16.10.2014 22:00 13,2 C 13,2 C 13,4 C 93 % 1010,1 hPa 0,0 l/m 0,0 km/h (0 Bft) N 0 0 min 0,000 mm 0 W/m 12,1 C 13,2 C 0,0 km/h (0 Bft) 99 %
16.10.2014 22:10 13,0 C 13,0 C 13,2 C 93 % 1010,0 hPa 0,0 l/m 0,0 km/h (0 Bft) S-SO 157 0 min 0,000 mm 0 W/m 11,9 C 13,0 C 6,4 km/h (2 Bft) 100 %
16.10.2014 22:20 13,2 C 13,0 C 13,2 C 93 % 1009,8 hPa 0,0 l/m 4,8 km/h (1 Bft) SO 135 0 min 0,000 mm 0 W/m 12,1 C 13,2 C 8,0 km/h (2 Bft) 100 %
16.10.2014 22:30 13,4 C 13,2 C 13,4 C 93 % 1009,8 hPa 0,0 l/m 3,2 km/h (1 Bft) SO 135 0 min 0,000 mm 0 W/m 12,3 C 13,4 C 8,0 km/h (2 Bft) 99 %
16.10.2014 22:40 13,5 C 13,4 C 13,5 C 93 % 1010,0 hPa 0,0 l/m 3,2 km/h (1 Bft) SO 135 0 min 0,000 mm 0 W/m 12,4 C 13,5 C 6,4 km/h (2 Bft) 99 %
16.10.2014 22:50 13,6 C 13,5 C 13,6 C 93 % 1009,8 hPa 0,0 l/m 0,0 km/h (0 Bft) SO 135 0 min 0,000 mm 0 W/m 12,5 C 13,6 C 6,4 km/h (2 Bft) 89 %
16.10.2014 23:00 13,6 C 13,6 C 13,6 C 93 % 1009,8 hPa 0,0 l/m 0,0 km/h (0 Bft) SO 135 0 min 0,000 mm 0 W/m 12,5 C 13,6 C 6,4 km/h (2 Bft) 100 %
16.10.2014 23:10 13,6 C 13,6 C 13,6 C 93 % 1009,8 hPa 0,0 l/m 3,2 km/h (1 Bft) SO 135 0 min 0,000 mm 0 W/m 12,5 C 13,6 C 6,4 km/h (2 Bft) 99 %
16.10.2014 23:20 13,6 C 13,6 C 13,7 C 93 % 1009,9 hPa 0,0 l/m 1,6 km/h (1 Bft) SO 135 0 min 0,000 mm 0 W/m 12,5 C 13,6 C 6,4 km/h (2 Bft) 100 %
16.10.2014 23:30 13,6 C 13,6 C 13,6 C 93 % 1009,8 hPa 0,0 l/m 1,6 km/h (1 Bft) SO 135 0 min 0,000 mm 0 W/m 12,5 C 13,6 C 6,4 km/h (2 Bft) 99 %
16.10.2014 23:40 13,6 C 13,6 C 13,6 C 93 % 1009,7 hPa 0,0 l/m 0,0 km/h (0 Bft) SO 135 0 min 0,000 mm 0 W/m 12,5 C 13,6 C 4,8 km/h (1 Bft) 99 %
16.10.2014 23:50 13,6 C 13,6 C 13,6 C 93 % 1009,5 hPa 0,0 l/m 1,6 km/h (1 Bft) SO 135 0 min 0,000 mm 0 W/m 12,5 C 13,6 C 6,4 km/h (2 Bft) 100 %
_ Min-Zeit 05:20 05:20 06:10 14:10 04:30 - 00:00 - - - - - 05:20 05:20 05:20 07:10
Minimum _ 12,6 C 12,6 C 12,6 C 90 % 1006,5 hPa - 0,0 km/h (0 Bft) - - - - - 11,3 C 12,6 C 0,0 km/h (0 Bft) 87 %
_ Max-Zeit 13:50 14:00 13:50 07:40 22:00 00:00 14:10 - - 10:00 11:10 10:20 13:10 12:40 14:40 09:10
Maximum _ 16,5 C 16,5 C 16,5 C 93 % 1010,1 hPa 0,2 l/m 13,8 km/h
S-SW (3 Bft)
- - 10 min 0,102 mm 432 W/m 15,1 C 16,3 C 30,6 km/h
S-SW (5 Bft)
100 %
Durchschnitt _ 14,1 C 14,0 C 14,1 C 92 % 1007,7 hPa #0,8 l/m 4,0 km/h (1 Bft) S-SO - #1:40 h #0,610 mm 97 W/m 12,8 C 13,7 C 10,7 km/h (2 Bft) 98 %
PRIVATE WETTERSTATION BILLIGHEIM-ALLFELD - www.neckar-odenwald-wetter.de - Holger Sonntag